Location: Ferintosh
(52.7647°N, 112.9692°W)
Time: 23:51:56
(UTC+00:00)

S-56A Canister/Altair - Pass Details

Date: 21 May 2024
Orbit: 637 x 2489 km, 38.9° (Epoch: 19 June)

Event Time Altitude Azimuth Distance (km) Brightness Sun altitude
Rises 17:40:47 0° 260° (W) 4,887 11.4 51.5°
Reaches altitude 10° 17:45:06 10° 249° (WSW) 3,548 10.9 52.0°
Maximum altitude 17:51:35 24° 200° (SSW) 2,121 10.4 52.6°
Drops below altitude 10° 17:56:29 10° 147° (SSE) 2,598 11.1 53.1°
Sets 17:59:06 0° 133° (SE) 3,341 11.4 53.3°
